When you browse on this site, cookies collect data to enhance your experience and personalize the content and advertising you see.
Visit our Privacy Policy to learn more. By continuing to use the site, you agree to this use of cookies and data.
  • In Hungary
  • List of Countries
  • For 7 days
  • Water Temperature
  • Satellite Maps
  • Weather Map
  • News
  • Weather Widgets
  • user-avatar
    Login

    Hourly Weather Jeleniewo

    Today, 19 April, Friday

    Time Temperature Precipitation Wind Pressure Humidity
    00:00 +8°C° 0 mm 3 mps 755 mmHg 68%
    01:00 +7°C° 0 mm 2 mps 755 mmHg 69%
    02:00 +7°C° 0 mm 3 mps 755 mmHg 71%
    03:00 +6°C° 0 mm 2 mps 755 mmHg 73%
    04:00 +6°C° 0 mm 2 mps 755 mmHg 76%
    05:00 +5°C° 0 mm 2 mps 755 mmHg 78%
    06:00 +7°C° 0 mm 2 mps 756 mmHg 73%
    07:00 +9°C° 0 mm 1 mps 756 mmHg 67%
    08:00 +11°C° 0 mm 1 mps 756 mmHg 62%
    09:00 +13°C° 0 mm 2 mps 756 mmHg 55%
    10:00 +14°C° 0 mm 2 mps 756 mmHg 49%
    11:00 +16°C° 0 mm 3 mps 756 mmHg 42%
    12:00 +16°C° 0 mm 3 mps 756 mmHg 40%
    13:00 +17°C° 0 mm 3 mps 756 mmHg 38%
    14:00 +18°C° 0 mm 3 mps 756 mmHg 36%
    15:00 +18°C° 0 mm 3 mps 755 mmHg 37%
    16:00 +17°C° 0 mm 3 mps 755 mmHg 38%
    17:00 +17°C° 0 mm 3 mps 755 mmHg 40%
    18:00 +15°C° 0 mm 2 mps 755 mmHg 46%
    19:00 +14°C° 0 mm 2 mps 755 mmHg 53%
    20:00 +12°C° 0 mm 1 mps 755 mmHg 60%
    21:00 +10°C° 0 mm 2 mps 755 mmHg 63%
    22:00 +9°C° 0 mm 2 mps 755 mmHg 67%
    23:00 +8°C° 0 mm 2 mps 755 mmHg 70%

    Tomorrow, 20 April, Saturday

    Time Temperature Precipitation Wind Pressure Humidity
    00:00 +8°C° 0 mm 2 mps 755 mmHg 70%
    01:00 +7°C° 0 mm 2 mps 755 mmHg 70%
    02:00 +7°C° 0 mm 2 mps 755 mmHg 70%
    03:00 +6°C° 0 mm 2 mps 754 mmHg 67%
    04:00 +6°C° 0 mm 2 mps 754 mmHg 64%
    05:00 +5°C° 0 mm 2 mps 754 mmHg 62%
    06:00 +6°C° 0 mm 2 mps 754 mmHg 60%
    07:00 +7°C° 0 mm 3 mps 754 mmHg 59%
    08:00 +8°C° 0 mm 3 mps 754 mmHg 57%
    09:00 +10°C° 0 mm 3 mps 754 mmHg 52%
    10:00 +12°C° 0 mm 4 mps 753 mmHg 48%
    11:00 +13°C° 0 mm 4 mps 753 mmHg 43%
    12:00 +14°C° 0 mm 4 mps 753 mmHg 41%
    13:00 +15°C° 0 mm 4 mps 752 mmHg 40%
    14:00 +15°C° 0 mm 4 mps 752 mmHg 38%
    15:00 +15°C° 0 mm 4 mps 752 mmHg 41%
    16:00 +14°C° 0 mm 4 mps 752 mmHg 45%
    17:00 +14°C° 0 mm 4 mps 751 mmHg 48%
    18:00 +13°C° 0 mm 4 mps 751 mmHg 55%
    19:00 +11°C° 0 mm 3 mps 751 mmHg 63%
    20:00 +10°C° 0 mm 2 mps 751 mmHg 70%
    21:00 +9°C° 0 mm 2 mps 751 mmHg 73%
    22:00 +8°C° 0 mm 2 mps 751 mmHg 76%
    23:00 +7°C° 0 mm 2 mps 751 mmHg 79%

    Day after tomorrow, 21 April, Sunday

    Time Temperature Precipitation Wind Pressure Humidity
    00:00 +7°C° 0 mm 2 mps 750 mmHg 80%
    01:00 +7°C° 0 mm 2 mps 750 mmHg 81%
    02:00 +7°C° 0 mm 2 mps 750 mmHg 82%
    03:00 +6°C° 0.1 mm 2 mps 750 mmHg 83%
    04:00 +6°C° 0.1 mm 2 mps 749 mmHg 84%
    05:00 +6°C° 0.1 mm 2 mps 749 mmHg 85%
    06:00 +7°C° 0.1 mm 3 mps 749 mmHg 84%
    07:00 +7°C° 0.1 mm 3 mps 749 mmHg 83%
    08:00 +7°C° 0.1 mm 3 mps 749 mmHg 82%
    09:00 +8°C° 0.5 mm 4 mps 749 mmHg 72%
    10:00 +10°C° 0.5 mm 4 mps 748 mmHg 62%
    11:00 +11°C° 0.5 mm 4 mps 748 mmHg 52%
    12:00 +12°C° 0.2 mm 4 mps 748 mmHg 50%
    13:00 +12°C° 0.2 mm 4 mps 748 mmHg 48%
    14:00 +12°C° 0.2 mm 4 mps 748 mmHg 46%
    15:00 +12°C° 0.5 mm 4 mps 748 mmHg 49%
    16:00 +12°C° 0.5 mm 4 mps 748 mmHg 52%
    17:00 +12°C° 0.5 mm 4 mps 747 mmHg 55%
    18:00 +10°C° 0.1 mm 4 mps 748 mmHg 63%
    19:00 +9°C° 0.1 mm 3 mps 748 mmHg 71%
    20:00 +8°C° 0.1 mm 3 mps 748 mmHg 78%
    21:00 +7°C° 0 mm 3 mps 748 mmHg 82%
    22:00 +7°C° 0 mm 3 mps 748 mmHg 85%
    23:00 +7°C° 0 mm 3 mps 748 mmHg 88%

    22 April, Monday

    Time Temperature Precipitation Wind Pressure Humidity
    00:00 +7°C° 0 mm 3 mps 748 mmHg 89%
    01:00 +5°C° 0 mm 4 mps 749 mmHg 90%
    02:00 +5°C° 0 mm 4 mps 749 mmHg 90%
    03:00 +5°C° 0 mm 4 mps 749 mmHg 92%
    04:00 +5°C° 0 mm 4 mps 749 mmHg 93%
    05:00 +4°C° 0 mm 4 mps 749 mmHg 94%
    06:00 +5°C° 0 mm 4 mps 750 mmHg 91%
    07:00 +6°C° 0 mm 4 mps 750 mmHg 87%
    08:00 +7°C° 0 mm 5 mps 750 mmHg 84%
    09:00 +9°C° 0 mm 5 mps 751 mmHg 76%
    10:00 +12°C° 0 mm 5 mps 751 mmHg 67%
    11:00 +14°C° 0 mm 6 mps 751 mmHg 59%
    12:00 +15°C° 0 mm 6 mps 751 mmHg 54%
    13:00 +15°C° 0 mm 6 mps 751 mmHg 50%
    14:00 +16°C° 0 mm 6 mps 751 mmHg 45%
    15:00 +16°C° 0 mm 6 mps 751 mmHg 46%
    16:00 +15°C° 0 mm 5 mps 751 mmHg 47%
    17:00 +15°C° 0 mm 5 mps 751 mmHg 48%
    18:00 +14°C° 0 mm 5 mps 751 mmHg 53%
    19:00 +12°C° 0 mm 4 mps 751 mmHg 58%
    20:00 +10°C° 0 mm 4 mps 751 mmHg 62%
    21:00 +10°C° 0 mm 4 mps 752 mmHg 63%
    22:00 +8°C° 0 mm 4 mps 752 mmHg 64%
    23:00 +7°C° 0 mm 4 mps 752 mmHg 65%

    23 April, Tuesday

    Time Temperature Precipitation Wind Pressure Humidity
    00:00 +7°C° 0 mm 4 mps 752 mmHg 65%
    01:00 +6°C° 0 mm 4 mps 752 mmHg 66%
    02:00 +5°C° 0 mm 4 mps 752 mmHg 67%
    03:00 +5°C° 0 mm 4 mps 752 mmHg 68%
    04:00 +5°C° 0 mm 4 mps 752 mmHg 68%
    05:00 +5°C° 0 mm 4 mps 752 mmHg 69%
    06:00 +6°C° 0 mm 5 mps 752 mmHg 65%
    07:00 +7°C° 0 mm 6 mps 752 mmHg 60%
    08:00 +9°C° 0 mm 7 mps 752 mmHg 56%
    09:00 +10°C° 0 mm 8 mps 752 mmHg 52%
    10:00 +11°C° 0 mm 8 mps 752 mmHg 49%
    11:00 +13°C° 0 mm 9 mps 752 mmHg 45%
    12:00 +13°C° 0 mm 9 mps 751 mmHg 44%
    13:00 +15°C° 0 mm 9 mps 751 mmHg 43%
    14:00 +15°C° 0 mm 9 mps 751 mmHg 42%
    15:00 +15°C° 0 mm 8 mps 750 mmHg 43%
    16:00 +15°C° 0 mm 8 mps 750 mmHg 44%
    17:00 +15°C° 0 mm 8 mps 750 mmHg 45%
    18:00 +14°C° 0 mm 7 mps 750 mmHg 49%
    19:00 +13°C° 0 mm 6 mps 750 mmHg 52%
    20:00 +10°C° 0 mm 6 mps 749 mmHg 56%
    21:00 +10°C° 0 mm 6 mps 750 mmHg 57%
    22:00 +9°C° 0 mm 6 mps 750 mmHg 58%
    23:00 +9°C° 0 mm 6 mps 750 mmHg 59%

    24 April, Wednesday

    Time Temperature Precipitation Wind Pressure Humidity
    00:00 +9°C° 0 mm 6 mps 750 mmHg 60%
    01:00 +8°C° 0 mm 6 mps 750 mmHg 61%
    02:00 +8°C° 0 mm 6 mps 750 mmHg 61%
    03:00 +8°C° 0 mm 6 mps 750 mmHg 63%
    04:00 +6°C° 0 mm 7 mps 750 mmHg 64%
    05:00 +6°C° 0 mm 7 mps 750 mmHg 65%
    06:00 +8°C° 0 mm 7 mps 750 mmHg 62%
    07:00 +9°C° 0 mm 8 mps 750 mmHg 59%
    08:00 +10°C° 0 mm 9 mps 750 mmHg 56%
    09:00 +11°C° 0 mm 9 mps 750 mmHg 52%
    10:00 +12°C° 0 mm 9 mps 749 mmHg 49%
    11:00 +13°C° 0 mm 10 mps 749 mmHg 45%
    12:00 +15°C° 0 mm 9 mps 749 mmHg 44%
    13:00 +16°C° 0 mm 9 mps 749 mmHg 44%
    14:00 +17°C° 0 mm 9 mps 749 mmHg 43%
    15:00 +16°C° 0.1 mm 8 mps 749 mmHg 49%
    16:00 +15°C° 0.1 mm 7 mps 749 mmHg 54%
    17:00 +14°C° 0.1 mm 6 mps 749 mmHg 60%
    18:00 +13°C° 0.2 mm 6 mps 749 mmHg 64%
    19:00 +11°C° 0.2 mm 6 mps 749 mmHg 69%
    20:00 +10°C° 0.2 mm 6 mps 749 mmHg 73%
    21:00 +10°C° 0 mm 5 mps 749 mmHg 73%
    22:00 +10°C° 0 mm 5 mps 749 mmHg 73%
    23:00 +9°C° 0 mm 5 mps 749 mmHg 73%
    Show more